This is the latest recevied weather packets stored in our database for station/object SR8WXB-1. If no packets are shown the sender has not sent any weather packets the latest 1 day(s).
| Time | Temp. | Humidity | Pressure | Rain* | Wind** | Luminosity | Snow |
|---|---|---|---|---|---|---|---|
| 1836274706 | 12.22° C | 100% | 954.5 hPa | - | 2.68 m/s, 232° | - | - |
| 1836274467 | 12.78° C | 100% | 954.5 hPa | - | 3.13 m/s, 232° | - | - |
| 1836274439 | 12.22° C | 100% | 954.5 hPa | - | 2.68 m/s, 225° | - | - |
| 1836274223 | 12.22° C | 100% | 954.4 hPa | - | 3.58 m/s, 236° | - | - |
| 1836274196 | 12.22° C | 100% | 954.5 hPa | - | 3.13 m/s, 234° | - | - |
| 1836273983 | 12.22° C | 100% | 954.4 hPa | - | 4.02 m/s, 238° | - | - |
| 1778035241 | 13.89° C | 100% | 937.9 hPa | - | 5.36 m/s, 227° | - | - |
| 1778035001 | 14.44° C | 100% | 937.9 hPa | - | 5.81 m/s, 235° | - | - |
| 1778034752 | 14.44° C | 100% | 937.9 hPa | - | 7.15 m/s, 233° | - | - |
| 1778034512 | 14.44° C | 100% | 937.9 hPa | - | 6.26 m/s, 236° | - | - |
| 1778034272 | 15° C | 100% | 937.9 hPa | - | 6.26 m/s, 237° | - | - |
| 1778034029 | 15° C | 100% | 937.9 hPa | - | 5.81 m/s, 236° | - | - |
| 1778033789 | 15° C | 100% | 937.9 hPa | - | 6.26 m/s, 235° | - | - |
| 1778033550 | 14.44° C | 100% | 937.9 hPa | - | 6.26 m/s, 237° | - | - |
| 1778033309 | 14.44° C | 100% | 937.9 hPa | - | 5.36 m/s, 237° | - | - |
| 1778033070 | 14.44° C | 100% | 937.9 hPa | - | 7.15 m/s, 233° | - | - |
| 1778032827 | 14.44° C | 100% | 937.9 hPa | - | 8.94 m/s, 234° | - | - |
| 1778032587 | 15° C | 100% | 937.9 hPa | - | 7.15 m/s, 234° | - | - |
| 1778032347 | 15° C | 100% | 938 hPa | - | 5.81 m/s, 235° | - | - |
| 1778032107 | 15° C | 100% | 937.9 hPa | - | 5.81 m/s, 236° | - | - |
| 1778031867 | 15° C | 100% | 937.9 hPa | - | 5.81 m/s, 233° | - | - |
| 1778031624 | 15° C | 100% | 938 hPa | - | 5.36 m/s, 236° | - | - |
| 1778031384 | 15° C | 100% | 938 hPa | - | 5.36 m/s, 235° | - | - |
| 1778031144 | 15.56° C | 100% | 938 hPa | - | 6.71 m/s, 236° | - | - |
| 1778030903 | 15.56° C | 100% | 938 hPa | - | 5.81 m/s, 236° | - | - |
* Rain since midnight (hover to see other rain measurements)
** Current wind speed in m/s (hover to see current wind gust speed)